GW5416 Weather Reports


time (UTC)temp
F
wind
direction
speed
knots
gust
knots
rain 1hr
in
rain 24hr
in
rain mn
in
humidity
%
barometer
mb
20260507052454 54 261 0.9 3.5 0.00 0.00 0.00 88 1018.2
20260507051815 54 105 0.9 1.7 0.00 0.00 0.00 87 1018.2
20260507051134 54 288 0.0 0.9 0.00 0.00 0.00 86 1018.2
20260507050456 54 50 0.9 0.9 0.00 0.00 0.00 87 1018.2
20260507045709 54 40 0.9 1.7 0.00 0.00 0.00 86 1018.2
20260507045029 54 224 0.9 1.7 0.00 0.00 0.00 86 1018.2
20260507044348 54 25 0.0 0.9 0.00 0.00 0.00 86 1018.2
20260507043709 55 42 0.9 1.7 0.00 0.00 0.00 85 1018.2
20260507043028 55 59 0.9 1.7 0.00 0.00 0.00 85 1018.2
20260507042348 55 39 0.9 1.7 0.00 0.00 0.00 84 1018.2
20260507041709 55 40 0.9 0.9 0.00 0.00 0.00 84 1018.2
20260507041029 55 34 0.9 0.9 0.00 0.00 0.00 84 1018.2
20260507040348 56 35 0.9 0.9 0.00 0.00 0.00 83 1018.2
20260507035708 56 34 0.9 0.9 0.00 0.00 0.00 82 1018.2
20260507034918 56 337 0.9 0.9 0.00 0.00 0.00 82 1018.2
20260507034238 56 36 0.0 0.9 0.00 0.00 0.00 81 1018.2
20260507033558 57 36 0.9 0.9 0.00 0.00 0.00 80 1017.8
20260507032918 57 34 0.9 0.0 0.00 0.00 0.00 79 1017.8
20260507032127 58 35 0.9 1.7 0.00 0.00 0.00 78 1017.8
20260507031448 58 23 0.9 1.7 0.00 0.00 0.00 78 1017.8
20260507030807 59 34 0.9 1.7 0.00 0.00 0.00 77 1017.8
20260507030127 59 40 0.9 3.5 0.00 0.00 0.00 76 1017.8
20260507025447 60 88 0.9 4.3 0.00 0.00 0.00 75 1017.8
20260507024807 61 56 1.7 4.3 0.00 0.00 0.00 73 1017.8
20260507024127 62 47 1.7 3.5 0.00 0.00 0.00 72 1017.8
20260507023447 62 62 1.7 4.3 0.00 0.00 0.00 71 1017.8
20260507022808 63 23 0.9 1.7 0.00 0.00 0.00 70 1017.8
20260507021800 63 33 0.9 0.9 0.00 0.00 0.00 68 1017.5
20260507021013 64 21 1.7 3.5 0.00 0.00 0.00 67 1017.5
20260507020333 64 44 0.9 2.6 0.00 0.00 0.00 66 1017.5
20260507015653 64 19 0.9 3.5 0.00 0.00 0.00 65 1017.5
20260507015013 65 74 0.9 3.5 0.00 0.00 0.00 64 1017.5
20260507014333 66 50 0.9 2.6 0.00 0.00 0.00 64 1017.5
20260507013653 66 21 0.9 1.7 0.00 0.00 0.00 62 1017.5
20260507013013 67 358 0.9 0.9 0.00 0.00 0.00 61 1017.5
20260507012223 67 267 0.9 2.6 0.00 0.00 0.00 60 1017.5
20260507011543 67 53 0.9 4.3 0.00 0.00 0.00 60 1017.5
20260507010903 68 255 2.6 1.7 0.00 0.00 0.00 58 1017.5
20260507010113 69 248 1.7 9.6 0.00 0.00 0.00 56 1017.5
20260507005433 69 32 2.6 23.5 0.00 0.00 0.00 57 1017.5
20260507004753 70 187 4.3 23.5 0.00 0.00 0.00 55 1017.5
20260507004113 71 80 9.6 21.7 0.00 0.00 0.00 54 1017.5
20260507003433 71 80 7.0 19.1 0.00 0.00 0.00 55 1017.5
20260507002753 71 68 7.0 23.5 0.00 0.00 0.00 54 1017.5
20260507002113 71 70 9.6 23.5 0.00 0.00 0.00 53 1017.5
20260507001433 72 84 7.0 17.4 0.00 0.00 0.00 53 1017.5
20260507000753 71 76 7.0 19.1 0.00 0.00 0.00 53 1017.5
20260507000113 71 73 6.1 19.1 0.00 0.00 0.00 54 1017.5
20260506235433 72 79 6.1 22.6 0.00 0.00 0.00 52 1017.8
20260506234753 72 92 7.8 24.3 0.00 0.00 0.00 54 1017.8
20260506234113 72 72 10.4 24.3 0.00 0.00 0.00 52 1017.8
20260506233432 72 65 7.8 19.1 0.00 0.00 0.00 51 1017.8
20260506232753 72 81 5.2 22.6 0.00 0.00 0.00 53 1017.8
20260506232112 71 74 7.8 16.5 0.00 0.00 0.00 54 1017.8
20260506231433 71 74 7.0 17.4 0.00 0.00 0.00 52 1017.8
20260506230753 71 71 7.0 19.1 0.00 0.00 0.00 51 1017.8
20260506230113 72 81 7.8 23.5 0.00 0.00 0.00 50 1017.8
20260506225432 71 80 6.1 23.5 0.00 0.00 0.00 52 1017.8
20260506224752 70 7 10.4 10.4 0.00 0.00 0.00 55 1018.2
20260506224002 69 57 6.1 13.9 0.00 0.00 0.00 53 1018.2
20260506223323 70 60 5.2 5.2 0.00 0.00 0.00 52 1018.2
20260506222534 71 80 7.8 21.7 0.00 0.00 0.00 51 1018.5
20260506221854 70 74 7.8 21.7 0.00 0.00 0.00 53 1018.5
20260506221214 71 80 6.1 23.5 0.00 0.00 0.00 49 1018.5
20260506220534 72 72 7.0 26.1 0.00 0.00 0.00 50 1018.9
20260506215854 71 75 10.4 26.1 0.00 0.00 0.00 50 1018.9
20260506215214 72 74 7.0 21.7 0.00 0.00 0.00 50 1018.9
20260506214534 72 94 9.6 21.7 0.00 0.00 0.00 49 1018.9
20260506213854 72 69 7.8 21.7 0.00 0.00 0.00 50 1018.9
20260506213215 72 81 7.0 20.9 0.00 0.00 0.00 49 1018.9
20260506212535 72 80 7.0 19.1 0.00 0.00 0.00 50 1018.9
20260506211855 72 79 7.0 20.9 0.00 0.00 0.00 48 1018.9
20260506211215 71 83 6.1 20.9 0.00 0.00 0.00 49 1018.9
20260506210535 71 75 7.8 24.3 0.00 0.00 0.00 53 1018.9
20260506205855 71 221 18.2 24.3 0.00 0.00 0.00 50 1018.9
20260506205215 70 48 10.4 5.2 0.00 0.00 0.00 52 1019.2
20260506204427 70 93 9.6 23.5 0.00 0.00 0.00 51 1019.2
20260506203747 70 82 6.1 26.1 0.00 0.00 0.00 50 1019.2
20260506203108 69 50 13.0 6.1 0.00 0.00 0.00 54 1019.2
20260506202319 69 46 5.2 23.5 0.00 0.00 0.00 52 1019.2
20260506201639 69 4 3.5 12.2 0.00 0.00 0.00 54 1019.6
20260506200959 68 0 1.7 11.3 0.00 0.00 0.00 54 1019.6
20260506200319 69 25 4.3 1.7 0.00 0.00 0.00 52 1019.6
20260506195531 69 43 7.0 22.6 0.00 0.00 0.00 54 1019.9
20260506194851 68 50 7.0 22.6 0.00 0.00 0.00 57 1019.9
20260506194211 68 47 10.4 20.0 0.00 0.00 0.00 56 1019.9
20260506193531 69 67 9.6 23.5 0.00 0.00 0.00 55 1019.9
20260506192851 68 45 11.3 22.6 0.00 0.00 0.00 56 1019.9
20260506192210 69 57 7.8 23.5 0.00 0.00 0.00 55 1019.9
20260506191530 69 65 11.3 23.5 0.00 0.00 0.00 56 1019.9
20260506190851 68 49 9.6 23.5 0.00 0.00 0.00 56 1019.9
20260506190211 68 59 10.4 23.5 0.00 0.00 0.00 58 1020.3
20260506185531 67 26 8.7 15.6 0.00 0.00 0.00 58 1019.9
20260506184742 68 57 9.6 20.9 0.00 0.00 0.00 58 1020.3
20260506184102 67 31 4.3 26.9 0.00 0.00 0.00 58 1020.3
20260506183421 68 35 8.7 26.9 0.00 0.00 0.00 58 1020.3
20260506182742 68 71 9.6 24.3 0.00 0.00 0.00 55 1020.3
20260506182101 68 49 8.7 7.8 0.00 0.00 0.00 58 1020.3
20260506181310 67 73 8.7 19.1 0.00 0.00 0.00 59 1020.3
20260506180630 67 59 10.4 13.0 0.00 0.00 0.00 59 1020.3
20260506175841 67 46 6.1 24.3 0.00 0.00 0.00 58 1020.3
20260506175202 66 60 13.0 24.3 0.00 0.00 0.00 60 1020.3
20260506174522 66 49 4.3 7.8 0.00 0.00 0.00 60 1020.3
20260506173732 65 78 7.8 22.6 0.00 0.00 0.00 60 1020.3
20260506173052 66 350 9.6 8.7 0.00 0.00 0.00 60 1020.3
20260506172307 65 60 9.6 25.2 0.00 0.00 0.00 61 1020.3
20260506171624 64 38 10.4 23.5 0.00 0.00 0.00 62 1020.3
20260506170944 64 62 9.6 17.4 0.00 0.00 0.00 62 1020.3
20260506170122 63 34 6.1 24.3 0.00 0.00 0.00 64 1020.3
20260506165442 63 17 12.2 7.8 0.00 0.00 0.00 64 1020.3
20260506164652 62 19 6.1 18.2 0.00 0.00 0.00 66 1020.3
20260506164012 62 59 4.3 23.5 0.00 0.00 0.00 67 1020.3
20260506163332 62 33 8.7 19.1 0.00 0.00 0.00 66 1020.3
20260506162652 61 15 7.8 2.6 0.00 0.00 0.00 67 1020.3
20260506161905 60 13 7.0 19.1 0.00 0.00 0.00 69 1020.3
20260506161225 60 60 5.2 1.7 0.00 0.00 0.00 69 1020.3
20260506160435 59 29 2.6 7.8 0.00 0.00 0.00 72 1020.3
20260506155755 59 64 2.6 4.3 0.00 0.00 0.00 71 1020.3
20260506155006 59 32 1.7 9.6 0.00 0.00 0.00 74 1020.3
20260506154326 58 46 1.7 5.2 0.00 0.00 0.00 73 1020.3
20260506153646 58 72 1.7 8.7 0.00 0.00 0.00 74 1020.3
20260506153006 59 64 2.6 8.7 0.00 0.00 0.00 72 1020.3
20260506152326 58 29 0.9 5.2 0.00 0.00 0.00 72 1020.3
20260506151646 59 24 0.9 4.3 0.00 0.00 0.00 72 1020.3
20260506151006 59 34 0.9 4.3 0.00 0.00 0.00 71 1020.3
20260506150326 59 42 1.7 7.8 0.00 0.00 0.00 72 1020.3
20260506145646 58 30 2.6 7.8 0.00 0.00 0.00 74 1020.3
20260506145006 58 28 0.9 10.4 0.00 0.00 0.00 74 1019.9
20260506144326 58 39 1.7 10.4 0.00 0.00 0.00 75 1019.9
20260506143646 57 30 1.7 5.2 0.00 0.00 0.00 76 1019.9
20260506143006 57 37 1.7 4.3 0.00 0.00 0.00 78 1019.9
20260506142326 56 40 0.9 4.3 0.00 0.00 0.00 81 1019.9
20260506141646 55 45 0.9 4.3 0.00 0.00 0.00 82 1019.9
20260506141006 54 30 0.9 1.7 0.00 0.00 0.00 84 1019.6
20260506140326 54 51 0.9 1.7 0.00 0.00 0.00 84 1019.6
20260506135646 53 47 0.9 1.7 0.00 0.00 0.00 84 1019.6
20260506135007 53 62 0.9 0.9 0.00 0.00 0.00 84 1019.6
20260506134327 53 21 0.0 0.0 0.00 0.00 0.00 83 1019.6
20260506133538 53 242 0.9 1.7 0.00 0.00 0.00 83 1019.6
20260506132857 53 308 0.9 1.7 0.00 0.00 0.00 83 1019.6
20260506132218 53 117 0.9 1.7 0.00 0.00 0.00 83 1019.6
20260506131538 53 152 0.9 1.7 0.00 0.00 0.00 83 1019.2
20260506130858 53 56 0.9 1.7 0.00 0.00 0.00 82 1019.2
20260506130218 53 42 0.9 2.6 0.00 0.00 0.00 82 1019.2
20260506125538 53 172 0.9 2.6 0.00 0.00 0.00 82 1019.2
20260506124858 53 96 0.9 2.6 0.00 0.00 0.00 82 1019.2
20260506124217 53 47 0.9 1.7 0.00 0.00 0.00 82 1019.2
20260506123537 53 190 0.9 1.7 0.00 0.00 0.00 82 1018.9
20260506122857 53 264 0.9 1.7 0.00 0.00 0.00 82 1019.2
20260506122218 53 39 0.9 0.9 0.00 0.00 0.00 82 1018.9
20260506121538 53 41 0.0 0.9 0.00 0.00 0.00 82 1018.9
20260506120713 53 43 0.9 2.6 0.00 0.00 0.00 82 1018.9
20260506120033 53 50 0.0 0.9 0.00 0.00 0.00 82 1018.9
20260506115245 53 40 0.9 0.9 0.00 0.00 0.00 82 1018.9
20260506114605 53 49 0.9 0.9 0.00 0.00 0.00 82 1018.9
20260506113557 53 43 0.9 0.9 0.00 0.00 0.00 82 1018.9
20260506112809 53 41 0.9 0.9 0.00 0.00 0.00 82 1018.9
20260506112129 53 42 0.9 0.9 0.00 0.00 0.00 82 1018.9
20260506111449 53 88 0.9 1.7 0.00 0.00 0.00 82 1018.5
20260506110809 53 159 0.9 0.9 0.00 0.00 0.00 82 1018.5
20260506110021 53 103 0.9 0.9 0.00 0.00 0.00 82 1018.5
20260506105341 53 152 0.9 1.7 0.00 0.00 0.00 82 1018.5
20260506104701 53 42 0.9 1.7 0.00 0.00 0.00 81 1018.5
20260506104021 53 85 0.9 1.7 0.00 0.00 0.00 82 1018.5
20260506103341 53 89 0.9 0.9 0.00 0.00 0.00 82 1018.5
20260506102701 53 56 0.9 0.9 0.00 0.00 0.00 82 1018.5
20260506102021 53 51 0.9 1.7 0.00 0.00 0.00 81 1018.5
20260506101341 53 76 0.9 1.7 0.00 0.00 0.00 81 1018.2
20260506100702 53 33 0.0 1.7 0.00 0.00 0.00 81 1018.2
20260506100022 53 56 0.9 1.7 0.00 0.00 0.00 81 1018.2
20260506095342 53 93 0.9 2.6 0.00 0.00 0.00 81 1018.2
20260506094702 53 42 0.9 2.6 0.00 0.00 0.00 81 1018.5
20260506094022 53 34 0.0 0.9 0.00 0.00 0.00 81 1018.2
20260506093342 53 42 0.9 0.9 0.00 0.00 0.00 81 1018.5
20260506092702 53 39 0.9 2.6 0.00 0.00 0.00 81 1018.5
20260506092022 53 38 0.9 4.3 0.00 0.00 0.00 81 1018.5
20260506091342 53 41 0.9 1.7 0.00 0.00 0.00 82 1018.5
20260506090702 53 51 1.7 0.9 0.00 0.00 0.00 82 1018.5
20260506085656 52 60 0.9 1.7 0.00 0.00 0.00 82 1018.2
20260506085015 52 42 0.9 1.7 0.00 0.00 0.00 82 1018.2
20260506084335 52 56 0.9 3.5 0.00 0.00 0.00 82 1018.5
20260506083655 52 61 0.9 0.9 0.00 0.00 0.00 82 1018.5
20260506083016 52 41 0.9 2.6 0.00 0.00 0.00 82 1018.5
20260506082336 52 47 1.7 2.6 0.00 0.00 0.00 82 1018.2
20260506081655 52 49 0.9 2.6 0.00 0.00 0.00 81 1018.2
20260506081015 52 67 0.9 2.6 0.00 0.00 0.00 81 1018.2
20260506080335 52 49 0.9 1.7 0.00 0.00 0.00 81 1018.2
20260506072907 52 48 0.9 1.7 0.00 0.00 0.00 81 1018.2
20260506072227 52 50 0.9 0.0 0.00 0.00 0.00 81 1018.2
20260506071329 52 49 1.7 2.6 0.00 0.00 0.00 82 1018.2
20260506070649 52 184 0.9 2.6 0.00 0.00 0.00 82 1017.8
20260506062429 52 47 0.9 2.6 0.00 0.00 0.00 82 1017.8
20260506061749 52 62 1.7 2.6 0.00 0.00 0.00 83 1017.5
20260506061109 53 57 0.9 1.7 0.00 0.00 0.00 83 1017.5
20260506060429 53 229 0.9 1.7 0.00 0.00 0.00 83 1017.5